Location: Audrecelles
(50.8240°N, 1.5923°E)
Time: 03:39:10
(UTC+00:00)

Cosmos 44 - Pass Details

Date: 20 October 2025
Orbit: 576 x 774 km, 65.1° (Epoch: 13 November)

Event Time Altitude Azimuth Distance (km) Brightness Sun altitude
Exits shadow 05:34:03 - 310° (NW) 2,571 5.7 -8.8°
Reaches altitude 10° 05:35:01 10° 306° (NW) 2,225 5.4 -8.6°
Maximum altitude 05:39:38 35° 242° (WSW) 1,194 4.1 -7.9°
Drops below altitude 10° 05:44:24 10° 177° (S) 2,295 6.1 -7.1°
Sets 05:46:59 0° 169° (S) 3,229 7.0 -6.7°
